MST,Max TemperatureF,Mean TemperatureF,Min TemperatureF,Max Dew PointF,MeanDew PointF,Min DewpointF,Max Humidity, Mean Humidity, Min Humidity, Max Sea Level PressureIn, Mean Sea Level PressureIn, Min Sea Level PressureIn, Max VisibilityMiles, Mean VisibilityMiles, Min VisibilityMiles, Max Wind SpeedMPH, Mean Wind SpeedMPH, Max Gust SpeedMPH,PrecipitationIn, CloudCover, Events, WindDirDegrees
2014-1-1,44,35,25,30,26,21,85,71,57,30.40,30.34,30.25,10,10,7,18,8,24,0.00,0,,216
2014-1-2,44,34,23,28,23,20,88,71,53,30.39,30.32,30.17,10,5,0,13,6,14,0.00,1,Fog,88
2014-1-3,51,37,23,29,24,17,88,64,40,30.12,29.95,29.88,10,10,10,26,14,32,T,4,,236
2014-1-4,34,29,23,17,13,9,74,56,38,30.30,30.18,29.96,10,10,10,37,23,45,0.00,0,,247
2014-1-5,41,32,22,10,6,3,55,38,21,30.50,30.42,30.31,10,10,10,29,17,35,0.00,0,,233
2014-1-6,40,27,13,11,8,4,64,45,25,30.54,30.43,30.24,10,10,10,15,7,18,0.00,0,,90
2014-1-7,43,33,22,24,17,10,64,52,40,30.22,30.16,30.06,10,10,10,10,4,14,0.00,7,,136
2014-1-8,41,36,30,35,31,25,96,78,59,30.12,30.07,29.94,10,4,0,16,6,20,0.13,7,Fog-Rain-Snow,248
2014-1-9,43,36,29,34,29,22,82,67,52,30.03,29.93,29.83,10,7,1,32,17,40,0.11,7,Rain-Snow,236
2014-1-10,48,41,34,32,28,25,75,60,45,30.11,30.01,29.91,10,10,10,32,17,38,0.00,5,,232
2014-1-11,54,46,37,35,32,28,76,60,44,30.05,29.81,29.64,10,9,3,44,21,58,0.04,7,Rain-Thunderstorm,206
2014-1-12,43,39,34,28,23,19,70,56,41,30.26,30.08,29.80,10,10,6,38,23,48,T,5,Snow,244
2014-1-13,51,44,37,31,28,25,70,55,39,30.48,30.37,30.26,10,10,10,29,18,35,0.00,4,,238
2014-1-14,50,41,32,26,24,19,70,55,39,30.63,30.57,30.47,10,10,10,23,14,29,0.00,0,,227
2014-1-15,48,38,28,28,20,15,61,52,42,30.55,30.48,30.42,10,9,1,20,12,27,0.00,0,,219
2014-1-16,45,34,23,26,20,15,81,61,40,30.54,30.48,30.43,10,10,10,18,6,22,0.00,0,,214
2014-1-17,45,33,20,25,20,16,81,61,40,30.45,30.38,30.30,10,10,9,16,5,18,0.00,0,,202
2014-1-18,46,33,19,25,19,13,84,61,38,30.45,30.38,30.33,10,9,5,10,4,13,0.00,0,,103
2014-1-19,49,33,16,24,19,14,84,61,38,30.32,30.26,30.18,10,9,0,13,6,14,0.00,0,Fog,55
2014-1-20,46,32,17,27,19,12,92,67,42,30.55,30.40,30.26,10,4,0,14,6,17,0.00,1,Fog,27
2014-1-21,47,32,16,27,17,12,88,63,38,30.51,30.42,30.31,10,3,0,9,3,11,0.00,1,Fog,127
2014-1-22,28,24,20,22,19,16,88,81,74,30.32,30.24,30.15,10,3,0,15,5,17,0.00,8,Fog,271
2014-1-23,43,33,23,24,21,20,88,67,45,30.60,30.44,30.28,10,3,0,15,5,18,0.00,5,Fog,36
2014-1-24,28,25,21,23,21,17,92,87,81,30.66,30.57,30.49,3,0,0,8,3,9,0.00,8,Fog,286
2014-1-25,27,24,21,22,19,17,88,85,81,30.56,30.43,30.33,5,2,0,7,2,9,0.00,8,Fog,282
2014-1-26,28,24,20,21,18,15,91,83,74,30.35,30.23,30.12,10,3,0,8,2,9,T,6,Fog-Snow,310
2014-1-27,25,22,18,21,18,13,91,84,77,30.36,30.22,30.11,9,3,0,10,3,12,0.00,8,Fog,296
2014-1-28,36,28,19,25,20,16,92,74,56,30.39,30.31,30.20,10,5,0,9,4,11,0.00,7,Fog,38
2014-1-29,56,44,31,43,34,20,92,77,61,30.19,29.86,29.62,10,5,0,35,12,41,0.42,8,Fog-Rain-Snow,236
2014-1-30,41,36,31,32,28,25,76,68,59,29.80,29.77,29.73,10,10,10,21,13,24,0.00,4,,230
2014-1-31,38,34,29,24,22,21,75,64,52,29.94,29.87,29.79,10,10,10,26,16,31,0.00,2,,234